Theta_e
347 345 342 342 345 348 350 350 351 350 352 349 348 346 346 342 342 345 346 348 350 350 348 347 341 345 345 348 343 343 342 349 348
347 347 344 344 345 348 350 350 351 351 352 351 350 350 345 343 342 342 344 347 343 350 352 350 349 349 349 348 344 344 345 348 343
347 346 346 345 346 348 350 349 352 347 352 346 350 350 345 349 346 341 342 343 344 345 349 349 350 349 349 349 346 345 342 350 346
346 346 345 347 348 350 351 351 350 350 352 352 346 349 346 349 350 348 340 345 343 345 345 343 344 345 350 349 347 345 345 346 350
346 346 346 348 350 351 351 348 346 345 345 351 351 351 351 348 347 350 349 349 349 344 344 344 345 345 344 346 346 347 345 349 349
349 347 349 350 348 348 347 347 344 343 342 346 350 350 350 347 350 350 349 350 347 345 343 344 343 344 343 343 345 344 346 348 350
349 349 349 346 346 345 346 346 344 343 342 342 343 349 350 350 350 350 350 349 348 343 341 340 342 343 343 344 344 344 346 348 349
348 348 348 347 344 342 339 343 343 343 341 341 343 344 344 346 345 347 347 348 347 346 346 347 349 347 344 347 350 349 343 347 349
345 346 345 345 347 345 345 344 343 342 342 343 337 340 341 341 342 346 346 347 346 342 344 346 346 349 351 352 350 349 345 345 351
340 339 341 343 344 344 344 344 344 343 340 338 340 341 341 342 342 343 345 344 343 343 343 346 345 347 350 350 349 344 343 343 343
335 336 336 340 340 341 342 344 343 343 342 342 341 339 340 340 341 340 341 342 342 342 339 344 345 344 346 347 347 344 345 345 345
335 333 336 337 338 339 339 339 340 340 339 338 339 342 341 337 337 336 336 339 340 341 341 340 343 342 344 344 344 343 345 345 349
331 335 335 335 335 334 335 335 336 337 338 339 338 336 338 337 335 338 338 338 338 339 339 340 340 340 340 341 342 341 340 341 342
331 332 332 331 330 330 329 329 329 330 330 331 333 334 334 334 330 331 329 328 330 332 334 336 337 339 339 338 337 338 338 339 339
329 329 328 326 324 323 323 323 322 322 323 325 326 325 326 327 327 325 324 323 324 328 331 332 332 330 326 328 329 329 330 330 330
329 328 326 324 322 320 319 317 316 317 313 313 314 316 319 321 322 323 323 323 322 322 324 325 325 324 325 324 328 327 325 323 323
325 323 322 320 319 318 315 313 311 310 309 308 308 309 310 311 312 314 317 319 320 321 322 322 321 321 321 321 321 321 321 321 321
322 321 319 319 318 317 313 310 309 308 307 306 307 307 308 309 310 312 311 313 314 313 315 318 317 318 318 319 318 317 315 314 312
319 318 317 317 314 313 309 308 306 305 305 305 307 306 309 309 309 309 310 309 309 310 310 311 312 312 312 311 310 308 306 306 305
319 318 315 314 312 313 310 308 305 304 304 305 304 308 305 305 306 307 307 308 308 305 303 303 303 303 303 303 302 303 303 303 303
Wind_Speed
31 29 28 27 23 21 27 22 20 19 17 17 16 13 11 13 11 8 7 7 8 6 7 8 9 11 11 11 11 10 10 6 7
29 27 27 25 25 22 22 24 22 20 17 16 15 14 12 12 12 11 8 9 8 7 8 9 10 11 11 10 11 10 10 9 10
30 24 25 26 24 22 21 27 21 23 17 17 14 14 15 10 11 11 11 8 7 8 10 12 12 11 11 11 10 10 10 9 12
32 35 30 25 24 22 21 23 23 21 17 15 16 14 16 13 11 11 12 9 8 7 9 11 8 10 11 11 10 9 9 11 11
23 27 27 24 25 21 20 22 23 22 17 12 12 13 15 16 13 11 11 11 8 7 6 11 10 10 11 10 10 11 10 9 10
15 19 22 23 25 25 23 19 23 23 25 22 12 13 14 15 15 13 13 13 12 11 10 10 10 10 11 11 10 11 9 10 10
17 22 23 27 28 21 17 17 22 21 18 21 17 11 14 14 14 14 13 14 16 15 13 12 13 12 12 11 12 12 10 9 10
16 16 19 21 28 26 27 26 23 23 20 19 17 14 11 10 12 14 15 16 16 16 15 13 12 13 13 12 11 10 12 11 10
15 17 14 18 20 21 23 23 26 26 24 17 14 18 17 18 14 15 16 15 16 18 15 12 12 12 12 12 11 16 16 15 12
12 15 16 15 18 20 21 22 22 22 22 20 22 20 19 17 18 19 18 15 13 14 15 12 12 11 11 15 19 21 19 18 17
12 14 13 15 16 16 20 20 20 20 20 21 20 18 17 17 16 13 11 11 12 13 12 9 8 8 14 16 16 16 17 17 18
14 13 13 14 15 16 17 17 16 16 17 17 17 18 15 11 12 11 10 10 11 11 9 8 10 13 14 13 12 10 11 10 9
15 14 14 16 17 16 15 15 15 17 19 20 20 17 15 12 10 10 11 11 11 12 12 11 11 11 11 12 12 11 9 7 1
18 19 20 19 18 16 15 14 13 12 14 16 20 17 14 13 12 11 12 11 10 10 10 9 8 8 7 9 6 6 5 6 5
20 23 21 19 18 16 15 14 11 8 9 10 12 13 15 13 12 10 11 12 13 13 13 12 12 10 6 5 2 2 2 3 3
19 19 17 13 12 11 9 10 9 8 8 9 9 9 9 11 11 10 10 9 8 7 7 8 8 8 5 3 6 7 6 6 7
18 17 15 13 11 9 7 6 5 5 6 7 8 8 8 9 9 9 9 7 6 5 5 5 6 8 10 11 11 11 11 10 11
18 16 14 12 10 8 4 3 3 4 5 5 4 5 5 5 5 6 8 9 8 9 12 11 6 8 10 11 15 15 16 17 17
19 16 12 10 8 5 3 2 3 4 5 6 6 5 5 5 4 5 6 5 8 9 9 9 10 11 12 14 13 13 11 11 14
18 16 13 9 6 3 3 4 6 6 5 6 7 7 6 5 5 4 4 6 4 2 6 5 7 8 8 8 9 9 9 8 10
Wind_Direction
199 194 194 194 196 198 197 191 191 189 195 197 202 203 201 205 203 201 193 202 202 179 202 189 196 190 184 190 204 214 220 226 206
199 202 195 196 202 199 195 194 192 190 193 196 202 207 211 213 215 216 208 203 210 212 199 201 192 196 200 202 205 214 226 213 219
180 199 202 199 201 199 196 193 197 191 195 205 209 209 219 216 219 218 220 216 215 220 217 196 205 200 201 207 207 208 208 221 225
183 196 199 195 197 195 190 185 186 186 188 193 210 216 221 216 217 212 220 232 221 205 205 199 208 207 199 202 208 213 213 204 215
187 187 192 189 185 179 184 192 191 195 212 188 197 209 215 222 226 221 217 219 221 217 207 210 209 203 207 216 215 219 223 218 228
159 171 169 167 179 170 176 191 202 216 215 215 201 209 216 223 224 227 222 220 221 217 213 208 207 207 218 227 228 229 238 228 226
161 168 171 175 172 181 204 219 210 209 214 216 216 198 207 217 220 225 224 218 220 223 227 223 226 231 235 237 232 227 221 224 228
165 165 171 176 179 191 209 213 209 212 208 214 216 210 209 211 225 225 221 220 214 215 222 224 225 228 230 228 230 233 233 228 230
158 164 157 162 171 181 191 202 209 213 222 202 214 227 234 231 234 221 214 208 207 208 211 216 221 224 227 225 222 233 236 234 231
135 138 155 156 178 191 191 193 203 200 191 194 214 218 226 229 230 226 208 203 203 208 212 216 222 225 220 221 220 229 234 238 242
131 147 151 166 171 169 180 188 192 201 197 199 211 222 222 224 219 214 195 194 212 214 217 210 217 227 231 229 234 237 236 237 241
137 137 146 153 160 170 174 171 184 191 195 200 204 212 209 202 195 196 196 204 204 198 189 185 194 203 220 222 229 241 242 229 220
135 147 148 144 141 140 145 148 159 173 176 179 178 163 175 183 169 172 183 190 190 194 185 194 207 217 233 249 235 217 222 239 274
147 148 145 139 135 131 128 125 128 141 149 162 164 161 168 168 163 170 168 173 171 167 168 176 188 198 204 215 223 239 233 247 245
141 147 149 147 140 139 139 142 141 144 154 157 156 153 158 160 165 157 165 163 164 162 161 164 167 164 151 170 167 205 203 243 253
146 144 146 150 156 145 138 146 155 161 177 174 178 175 179 178 182 181 177 171 168 160 168 158 155 168 162 186 224 248 261 266 275
151 150 150 151 146 143 147 159 166 175 179 183 176 181 189 195 198 195 183 171 182 177 172 205 212 225 234 246 252 247 252 262 270
158 157 156 152 149 143 158 183 170 194 191 188 187 184 180 175 183 180 199 201 188 222 223 216 207 229 241 245 261 274 282 286 289
163 157 159 154 159 156 178 206 224 220 197 183 174 176 167 168 161 161 160 182 214 228 234 233 245 254 261 273 276 283 291 298 302
178 177 173 165 148 177 233 238 240 238 225 203 190 179 188 190 165 172 170 165 174 223 219 218 225 238 250 268 287 296 302 303 301